Regional Weather Roundup
Issued by NWS

Home | Current Version | Previous Version | Graphics & Text | Print | Product List | Glossary On
Versions: 1 2 3 4 5 6 7 8 9 10 11 12 13 14 15 16 17 18 19 20 21 22 23 24 25 26 27 28 29 30 31 32 33 34 35 36 37 38 39 40 41 42 43 44 45 46 47 48 49 50
000
ASUS43 KDMX 201401
RWRIA

WEATHER ROUNDUP FOR IOWA
NATIONAL WEATHER SERVICE DES MOINES IA
900 AM CDT WED SEP 20 2017

NOTE: "FAIR" INDICATES FEW OR NO CLOUDS BELOW 12,000 FEET WITH NO
SIGNIFICANT WEATHER AND/OR OBSTRUCTIONS TO VISIBILITY.

* - THESE STATIONS ARE NOT NWS STATIONS...THUS NOT UNDER NWS
QUALITY CONTROL.  THEY ALSO DO NOT REPORT WEATHER SUCH
AS PRECIPITATION OR FOG.

IAZ001>003-012>014-020>022-031>034-043>046-201500-
   NORTHWEST IOWA

CITY           SKY/WX    TMP DP  RH WIND       PRES   REMARKS
CARROLL *      SUNNY     70  61  73 NW9       29.75R
CHEROKEE *     SUNNY     61  57  86 NW6       29.78R
DENISON *      SUNNY     64  55  72 N8        29.78R
LE MARS *      SUNNY     61  55  82 VRB6G12   29.79R
ORANGE CITY *  SUNNY     61  55  82 NW13G20   29.79R
SHELDON *      SUNNY     59  54  82 NW10G21   29.77R
SIOUX CITY     SUNNY     61  57  87 NW10      29.80R
SPENCER        SUNNY     62  57  83 NW13      29.76R
STORM LAKE *   SUNNY     63  55  77 NW14G20   29.77R
$$

IAZ055>058-069>071-079>083-090>094-201500-
   SOUTHWEST IOWA

CITY           SKY/WX    TMP DP  RH WIND       PRES   REMARKS
ATLANTIC *     PTSUNNY   73  70  88 S6        29.73S
AUDUBON *      MOSUNNY   72  66  83 CALM      29.75R
CLARINDA *     SUNNY     77  72  83 SW13      29.76R
COUNCIL BLFS * SUNNY     66  61  82 N13       29.76R
CRESTON *      SUNNY     75 -35   1 S13       29.77R
HARLAN  *      SUNNY     70  61  73 NW10G16   29.79R
LAMONI         SUNNY     74  69  85 S12       29.77R
RED OAK *      CLOUDY    75  70  83 W6        29.74R
SHENANDOAH *   SUNNY     79  70  73 S7        29.74R HX  81
$$

IAZ047>049-059>061-072>074-084-201500-
   CENTRAL IOWA

CITY           SKY/WX    TMP DP  RH WIND       PRES   REMARKS
AMES           MOSUNNY   76  71  85 SW10      29.74R
ANKENY *       SUNNY     77  70  78 S8        29.75R
BOONE *        SUNNY     75  70  83 VRB7G13   29.73F
CHARITON *     SUNNY     75  70  83 S15G22    29.76R
DES MOINES     MOSUNNY   77  69  76 S13       29.74R
GRINNELL*      SUNNY     74  67  79 S12       29.78R
KNOXVILLE *    SUNNY     77  68  73 S12       29.75R
MARSHALLTOWN   MOSUNNY   75  69  81 S10       29.75R
NEWTON *       SUNNY     75  68  78 S13       29.76R
PELLA *        SUNNY     78  67  70 S8G16     29.77R HX  80
PERRY *        PTSUNNY   75  71  87 SW3       29.74S
$$

IAZ004>006-015-016-023>025-035-036-201500-
   NORTH CENTRAL IOWA

CITY           SKY/WX    TMP DP  RH WIND       PRES   REMARKS
ALGONA *       SUNNY     66  61  82 NW8       29.74R
CLARION *      SUNNY     75  72  88 S12       29.72R
ESTHERVILLE    SUNNY     61  57  87 W12       29.75R
FORT DODGE *   SUNNY     69  64  84 CALM      29.73R
MASON CITY     MOSUNNY   73  68  84 S12       29.74R
FOREST CITY *    N/A     72  68  88 SW6       29.72R
IOWA FALLS *   CLOUDY    73  69  86 S7        29.75S
$$

IAZ007>011-017>019-026>030-037>042-050>054-066-201500-
   NORTHEAST IOWA

CITY           SKY/WX    TMP DP  RH WIND       PRES   REMARKS
CEDAR RAPIDS   SUNNY     74  68  81 S16G22    29.79R
CHARLES CITY * PTSUNNY   73  70  88 S13G23    29.75R
CLINTON *      MOSUNNY   72  67  84 S10       29.85R
DECORAH *      PTSUNNY   73  66  78 S9G21     29.76R
DUBUQUE        MOSUNNY   71  65  81 S14       29.83R
MONTICELLO *   SUNNY     75  68  78 S8        29.81R
OELWEIN *      MOSUNNY   73  70  88 S13G20    29.79R
WATERLOO       CLOUDY    73  66  78 S12       29.75R
$$

IAZ064-065-067-068-078-201500-
   EAST CENTRAL IOWA

CITY           SKY/WX    TMP DP  RH WIND       PRES   REMARKS
DAVENPORT      MOSUNNY   75  66  73 S16       29.85S
IOWA CITY      SUNNY     76  68  76 S14G20    29.81F
MUSCATINE *    HAZE      75  68  78 S10G16    29.82F VSB 1/2
QUAD CITIES    MOSUNNY   76  67  73 S8        29.83S
$$

IAZ062-063-075>077-085>089-095>099-201500-
   SOUTHEAST IOWA

CITY           SKY/WX    TMP DP  RH WIND       PRES   REMARKS
BURLINGTON     SUNNY     76  70  82 S15       29.84R
FAIRFIELD *    SUNNY     77  66  69 S15       29.80S
FORT MADISON * SUNNY     75  70  83 S13       29.84S
KEOKUK *       SUNNY     79  70  73 S14       29.84R HX  81
OSKALOOSA *      N/A     75  68  77 S12       29.79R
OTTUMWA        SUNNY     76  68  76 S10       29.78S
WASHINGTON *   SUNNY     77  70  78 S10G17    29.82S
$$

ABBREVIATIONS USED IN REMARKS
   TC - TEMPERATURES IN CELSIUS
  WCI - WIND CHILL INDEX
   HX - HEAT INDEX
  VSB - VISIBILITY
$$




USA.gov is the U.S. government's official web portal to all federal, state and local government web resources and services.